{"data":{"norad_id":68024,"epoch":"2026-09-18T07:53:35.543904Z","epoch_age_seconds":247206,"freshness":"STALE","line1":"1 68024U 26040K   26261.32888361  .00021352  00000+0  66158-3 0  9999","line2":"2 68024  97.2915 208.6709 0001633  76.1249 284.0176 15.33456745 30980","mean_motion":15.33456745,"eccentricity":0.0001633,"inclination_deg":97.2915,"raan_deg":208.6709,"arg_perigee_deg":76.1249,"mean_anomaly_deg":284.0176,"bstar":0.00066158,"rev_number":3098,"period_min":93.90548541361,"perigee_km":464.39066257845,"apogee_km":466.62579711052,"semimajor_km":6843.6452298445,"source":"CELESTRAK","updated_at":"2026-09-20T09:00:43.743329Z"}}